Year,Month,Day,Hour,Minute,Value (Times are PST for temperature in C)
2011,08,15,00,00,14.60
2011,08,15,00,01,14.60
2011,08,15,00,02,14.60
2011,08,15,00,03,14.60
2011,08,15,00,04,14.60
2011,08,15,00,05,14.60
2011,08,15,00,06,14.60
2011,08,15,00,07,14.60
2011,08,15,00,08,14.60
2011,08,15,00,09,14.60
2011,08,15,00,10,14.60
2011,08,15,00,11,14.60
2011,08,15,00,12,14.60
2011,08,15,00,13,14.60
2011,08,15,00,14,14.70
2011,08,15,00,15,14.70
2011,08,15,00,16,14.70
2011,08,15,00,17,14.70
2011,08,15,00,18,14.70
2011,08,15,00,19,14.70
2011,08,15,00,20,14.70
2011,08,15,00,21,14.70
2011,08,15,00,22,14.70
2011,08,15,00,23,14.70
2011,08,15,00,24,14.70
2011,08,15,00,25,14.70
2011,08,15,00,26,14.70
2011,08,15,00,27,14.70
2011,08,15,00,28,14.70
2011,08,15,00,29,14.70
2011,08,15,00,30,14.70
2011,08,15,00,31,14.70
2011,08,15,00,32,14.60
2011,08,15,00,33,14.70
2011,08,15,00,34,14.60
2011,08,15,00,35,14.60
2011,08,15,00,36,14.60
2011,08,15,00,37,14.60
2011,08,15,00,38,14.60
2011,08,15,00,39,14.60
2011,08,15,00,40,14.60
2011,08,15,00,41,14.60
2011,08,15,00,42,14.60
2011,08,15,00,43,14.60
2011,08,15,00,44,14.60
2011,08,15,00,45,14.70
2011,08,15,00,46,14.70
2011,08,15,00,47,14.70
2011,08,15,00,48,14.70
2011,08,15,00,49,14.70
2011,08,15,00,50,14.70
2011,08,15,00,51,14.70
2011,08,15,00,52,14.70
2011,08,15,00,53,14.60
2011,08,15,00,54,14.60
2011,08,15,00,55,14.60
2011,08,15,00,56,14.60
2011,08,15,00,57,14.60
2011,08,15,00,58,14.60
2011,08,15,00,59,14.60
2011,08,15,01,00,14.60
2011,08,15,01,01,14.60
2011,08,15,01,02,14.60
2011,08,15,01,03,14.60
2011,08,15,01,04,14.60
2011,08,15,01,05,14.60
2011,08,15,01,06,14.50
2011,08,15,01,07,14.50
2011,08,15,01,08,14.50
2011,08,15,01,09,14.50
2011,08,15,01,10,14.50
2011,08,15,01,11,14.50
2011,08,15,01,12,14.50
2011,08,15,01,13,14.50
2011,08,15,01,14,14.50
2011,08,15,01,15,14.50
2011,08,15,01,16,14.50
2011,08,15,01,17,14.50
2011,08,15,01,18,14.50
2011,08,15,01,19,14.40
2011,08,15,01,20,14.40
2011,08,15,01,21,14.40
2011,08,15,01,22,14.40
2011,08,15,01,23,14.40
2011,08,15,01,24,14.30
2011,08,15,01,25,14.30
2011,08,15,01,26,14.30
2011,08,15,01,27,14.30
2011,08,15,01,28,14.30
2011,08,15,01,29,14.30
2011,08,15,01,30,14.30
2011,08,15,01,31,14.30
2011,08,15,01,32,14.30
2011,08,15,01,33,14.30
2011,08,15,01,34,14.30
2011,08,15,01,35,14.20
2011,08,15,01,36,14.20
2011,08,15,01,37,14.20
2011,08,15,01,38,14.20
2011,08,15,01,39,14.20
2011,08,15,01,40,14.20
2011,08,15,01,41,14.20
2011,08,15,01,42,14.20
2011,08,15,01,43,14.20
2011,08,15,01,44,14.20
2011,08,15,01,45,14.20
2011,08,15,01,46,14.20
2011,08,15,01,47,14.20
2011,08,15,01,48,14.20
2011,08,15,01,49,14.20
2011,08,15,01,50,14.20
2011,08,15,01,51,14.20
2011,08,15,01,52,14.20
2011,08,15,01,53,14.20
2011,08,15,01,54,14.20
2011,08,15,01,55,14.10
2011,08,15,01,56,14.10
2011,08,15,01,57,14.10
2011,08,15,01,58,14.10
2011,08,15,01,59,14.10
2011,08,15,02,00,14.00
2011,08,15,02,01,14.00
2011,08,15,02,02,14.00
2011,08,15,02,03,14.00
2011,08,15,02,04,14.00
2011,08,15,02,05,13.90
2011,08,15,02,06,13.90
2011,08,15,02,07,13.90
2011,08,15,02,08,13.80
2011,08,15,02,09,13.70
2011,08,15,02,10,13.70
2011,08,15,02,11,13.60
2011,08,15,02,12,13.50
2011,08,15,02,13,13.50
2011,08,15,02,14,13.30
2011,08,15,02,15,13.20
2011,08,15,02,16,13.10
2011,08,15,02,17,13.10
2011,08,15,02,18,13.00
2011,08,15,02,19,12.90
2011,08,15,02,20,12.80
2011,08,15,02,21,12.80
2011,08,15,02,22,12.90
2011,08,15,02,23,12.90
2011,08,15,02,24,12.90
2011,08,15,02,25,12.90
2011,08,15,02,26,12.90
2011,08,15,02,27,13.00
2011,08,15,02,28,13.00
2011,08,15,02,29,13.00
2011,08,15,02,30,13.00
2011,08,15,02,31,13.00
2011,08,15,02,32,13.00
2011,08,15,02,33,13.10
2011,08,15,02,34,13.10
2011,08,15,02,35,13.20
2011,08,15,02,36,13.20
2011,08,15,02,37,13.20
2011,08,15,02,38,13.30
2011,08,15,02,39,13.30
2011,08,15,02,40,13.30
2011,08,15,02,41,13.30
2011,08,15,02,42,13.30
2011,08,15,02,43,13.30
2011,08,15,02,44,13.30
2011,08,15,02,45,13.30
2011,08,15,02,46,13.30
2011,08,15,02,47,13.20
2011,08,15,02,48,13.10
2011,08,15,02,49,13.10
2011,08,15,02,50,13.00
2011,08,15,02,51,12.90
2011,08,15,02,52,12.80
2011,08,15,02,53,12.80
2011,08,15,02,54,12.70
2011,08,15,02,55,12.60
2011,08,15,02,56,12.50
2011,08,15,02,57,12.40
2011,08,15,02,58,12.30
2011,08,15,02,59,12.40
2011,08,15,03,00,12.40
2011,08,15,03,01,12.40
2011,08,15,03,02,12.40
2011,08,15,03,03,12.40
2011,08,15,03,04,12.40
2011,08,15,03,05,12.40
2011,08,15,03,06,12.40
2011,08,15,03,07,12.40
2011,08,15,03,08,12.40
2011,08,15,03,09,12.40
2011,08,15,03,10,12.40
2011,08,15,03,11,12.40
2011,08,15,03,12,12.30
2011,08,15,03,13,12.30
2011,08,15,03,14,12.30
2011,08,15,03,15,12.30
2011,08,15,03,16,12.30
2011,08,15,03,17,12.30
2011,08,15,03,18,12.30
2011,08,15,03,19,12.40
2011,08,15,03,20,12.40
2011,08,15,03,21,12.40
2011,08,15,03,22,12.40
2011,08,15,03,23,12.40
2011,08,15,03,24,12.30
2011,08,15,03,25,12.30
2011,08,15,03,26,12.30
2011,08,15,03,27,12.30
2011,08,15,03,28,12.30
2011,08,15,03,29,12.20
2011,08,15,03,30,12.20
2011,08,15,03,31,12.10
2011,08,15,03,32,12.10
2011,08,15,03,33,12.00
2011,08,15,03,34,12.00
2011,08,15,03,35,11.90
2011,08,15,03,36,11.80
2011,08,15,03,37,11.80
2011,08,15,03,38,11.70
2011,08,15,03,39,11.70
2011,08,15,03,40,11.60
2011,08,15,03,41,11.60
2011,08,15,03,42,11.60
2011,08,15,03,43,11.60
2011,08,15,03,44,11.60
2011,08,15,03,45,11.60
2011,08,15,03,46,11.60
2011,08,15,03,47,11.60
2011,08,15,03,48,11.40
2011,08,15,03,49,11.40
2011,08,15,03,50,11.40
2011,08,15,03,51,11.40
2011,08,15,03,52,11.40
2011,08,15,03,53,11.30
2011,08,15,03,54,11.30
2011,08,15,03,55,11.30
2011,08,15,03,56,11.30
2011,08,15,03,57,11.30
2011,08,15,03,58,11.30
2011,08,15,03,59,11.30
2011,08,15,04,00,11.30
2011,08,15,04,01,11.40
2011,08,15,04,02,11.40
2011,08,15,04,03,11.40
2011,08,15,04,04,11.40
2011,08,15,04,05,11.40
2011,08,15,04,06,11.40
2011,08,15,04,07,11.40
2011,08,15,04,08,11.40
2011,08,15,04,09,11.50
2011,08,15,04,10,11.60
2011,08,15,04,11,11.60
2011,08,15,04,12,11.60
2011,08,15,04,13,11.70
2011,08,15,04,14,11.80
2011,08,15,04,15,11.90
2011,08,15,04,16,12.00
2011,08,15,04,17,12.00
2011,08,15,04,18,12.00
2011,08,15,04,19,12.00
2011,08,15,04,20,12.00
2011,08,15,04,21,12.10
2011,08,15,04,22,12.10
2011,08,15,04,23,12.10
2011,08,15,04,24,12.20
2011,08,15,04,25,12.30
2011,08,15,04,26,12.30
2011,08,15,04,27,12.40
2011,08,15,04,28,12.40
2011,08,15,04,29,12.40
2011,08,15,04,30,12.50
2011,08,15,04,31,12.50
2011,08,15,04,32,12.50
2011,08,15,04,33,12.60
2011,08,15,04,34,12.60
2011,08,15,04,35,12.70
2011,08,15,04,36,12.70
2011,08,15,04,37,12.70
2011,08,15,04,38,12.70
2011,08,15,04,39,12.70
2011,08,15,04,40,12.70
2011,08,15,04,41,12.70
2011,08,15,04,42,12.60
2011,08,15,04,43,12.40
2011,08,15,04,44,12.30
2011,08,15,04,45,12.20
2011,08,15,04,46,12.10
2011,08,15,04,47,12.00
2011,08,15,04,48,12.00
2011,08,15,04,49,11.90
2011,08,15,04,50,11.90
2011,08,15,04,51,11.80
2011,08,15,04,52,11.80
2011,08,15,04,53,11.70
2011,08,15,04,54,11.70
2011,08,15,04,55,11.60
2011,08,15,04,56,11.60
2011,08,15,04,57,11.50
2011,08,15,04,58,11.40
2011,08,15,04,59,11.40
2011,08,15,05,00,11.40
2011,08,15,05,01,11.40
2011,08,15,05,02,11.30
2011,08,15,05,03,11.30
2011,08,15,05,04,11.30
2011,08,15,05,05,11.30
2011,08,15,05,06,11.30
2011,08,15,05,07,11.30
2011,08,15,05,08,11.30
2011,08,15,05,09,11.30
2011,08,15,05,10,11.30
2011,08,15,05,11,11.30
2011,08,15,05,12,11.20
2011,08,15,05,13,11.30
2011,08,15,05,14,11.30
2011,08,15,05,15,11.30
2011,08,15,05,16,11.30
2011,08,15,05,17,11.30
2011,08,15,05,18,11.30
2011,08,15,05,19,11.20
2011,08,15,05,20,11.20
2011,08,15,05,21,11.20
2011,08,15,05,22,11.10
2011,08,15,05,23,11.10
2011,08,15,05,24,11.10
2011,08,15,05,25,11.00
2011,08,15,05,26,10.90
2011,08,15,05,27,10.90
2011,08,15,05,28,10.80
2011,08,15,05,29,10.80
2011,08,15,05,30,10.80
2011,08,15,05,31,10.70
2011,08,15,05,32,10.70
2011,08,15,05,33,10.70
2011,08,15,05,34,10.60
2011,08,15,05,35,10.60
2011,08,15,05,36,10.60
2011,08,15,05,37,10.60
2011,08,15,05,38,10.60
2011,08,15,05,39,10.60
2011,08,15,05,40,10.60
2011,08,15,05,41,10.60
2011,08,15,05,42,10.60
2011,08,15,05,43,10.60
2011,08,15,05,44,10.60
2011,08,15,05,45,10.60
2011,08,15,05,46,10.60
2011,08,15,05,47,10.60
2011,08,15,05,48,10.60
2011,08,15,05,49,10.60
2011,08,15,05,50,10.50
2011,08,15,05,51,10.40
2011,08,15,05,52,10.40
2011,08,15,05,53,10.40
2011,08,15,05,54,10.40
2011,08,15,05,55,10.40
2011,08,15,05,56,10.30
2011,08,15,05,57,10.30
2011,08,15,05,58,10.30
2011,08,15,05,59,10.20
2011,08,15,06,00,10.20
2011,08,15,06,01,10.20
2011,08,15,06,02,10.10
2011,08,15,06,03,10.10
2011,08,15,06,04,10.10
2011,08,15,06,05,10.10
2011,08,15,06,06,10.10
2011,08,15,06,07,10.10
2011,08,15,06,08,10.10
2011,08,15,06,09,10.10
2011,08,15,06,10,10.10
2011,08,15,06,11,10.00
2011,08,15,06,12,9.90
2011,08,15,06,13,9.90
2011,08,15,06,14,9.90
2011,08,15,06,15,9.90
2011,08,15,06,16,9.90
2011,08,15,06,17,9.90
2011,08,15,06,18,9.90
2011,08,15,06,19,9.90
2011,08,15,06,20,9.80
2011,08,15,06,21,9.80
2011,08,15,06,22,9.80
2011,08,15,06,23,9.80
2011,08,15,06,24,9.80
2011,08,15,06,25,9.80
2011,08,15,06,26,9.80
2011,08,15,06,27,9.80
2011,08,15,06,28,9.80
2011,08,15,06,29,9.80
2011,08,15,06,30,9.80
2011,08,15,06,31,9.80
2011,08,15,06,32,9.80
2011,08,15,06,33,9.80
2011,08,15,06,34,9.80
2011,08,15,06,35,9.80
2011,08,15,06,36,9.80
2011,08,15,06,37,9.80
2011,08,15,06,38,9.80
2011,08,15,06,39,9.80
2011,08,15,06,40,9.80
2011,08,15,06,41,9.80
2011,08,15,06,42,9.70
2011,08,15,06,43,9.70
2011,08,15,06,44,9.70
2011,08,15,06,45,9.80
2011,08,15,06,46,9.80
2011,08,15,06,47,9.90
2011,08,15,06,48,9.90
2011,08,15,06,49,10.10
2011,08,15,06,50,10.20
2011,08,15,06,51,10.20
2011,08,15,06,52,10.30
2011,08,15,06,53,10.40
2011,08,15,06,54,10.40
2011,08,15,06,55,10.40
2011,08,15,06,56,10.50
2011,08,15,06,57,10.60
2011,08,15,06,58,10.70
2011,08,15,06,59,10.80
2011,08,15,07,00,10.80
2011,08,15,07,01,10.80
2011,08,15,07,02,10.80
2011,08,15,07,03,10.80
2011,08,15,07,04,10.70
2011,08,15,07,05,10.60
2011,08,15,07,06,10.60
2011,08,15,07,07,10.50
2011,08,15,07,08,10.40
2011,08,15,07,09,10.40
2011,08,15,07,10,10.40
2011,08,15,07,11,10.40
2011,08,15,07,12,10.40
2011,08,15,07,13,10.40
2011,08,15,07,14,10.40
2011,08,15,07,15,10.40
2011,08,15,07,16,10.60
2011,08,15,07,17,10.60
2011,08,15,07,18,10.60
2011,08,15,07,19,10.60
2011,08,15,07,20,10.60
2011,08,15,07,21,10.50
2011,08,15,07,22,10.50
2011,08,15,07,23,10.60
2011,08,15,07,24,10.60
2011,08,15,07,25,10.60
2011,08,15,07,26,10.60
2011,08,15,07,27,10.60
2011,08,15,07,28,10.70
2011,08,15,07,29,10.70
2011,08,15,07,30,10.70
2011,08,15,07,31,10.80
2011,08,15,07,32,10.90
2011,08,15,07,33,10.90
2011,08,15,07,34,11.00
2011,08,15,07,35,11.10
2011,08,15,07,36,11.10
2011,08,15,07,37,11.20
2011,08,15,07,38,11.30
2011,08,15,07,39,11.30
2011,08,15,07,40,11.40
2011,08,15,07,41,11.40
2011,08,15,07,42,11.50
2011,08,15,07,43,11.60
2011,08,15,07,44,11.60
2011,08,15,07,45,11.70
2011,08,15,07,46,11.70
2011,08,15,07,47,11.80
2011,08,15,07,48,11.80
2011,08,15,07,49,11.80
2011,08,15,07,50,11.80
2011,08,15,07,51,11.80
2011,08,15,07,52,11.80
2011,08,15,07,53,11.80
2011,08,15,07,54,11.80
2011,08,15,07,55,11.90
2011,08,15,07,56,11.90
2011,08,15,07,57,11.90
2011,08,15,07,58,12.00
2011,08,15,07,59,12.10
2011,08,15,08,00,12.10
2011,08,15,08,01,12.20
2011,08,15,08,02,12.20
2011,08,15,08,03,12.30
2011,08,15,08,04,12.30
2011,08,15,08,05,12.30
2011,08,15,08,06,12.30
2011,08,15,08,07,12.30
2011,08,15,08,08,12.30
2011,08,15,08,09,12.30
2011,08,15,08,10,12.30
2011,08,15,08,11,12.30
2011,08,15,08,12,12.30
2011,08,15,08,13,12.30
2011,08,15,08,14,12.30
2011,08,15,08,15,12.30
2011,08,15,08,16,12.30
2011,08,15,08,17,12.40
2011,08,15,08,18,12.50
2011,08,15,08,19,12.50
2011,08,15,08,20,12.60
2011,08,15,08,21,12.60
2011,08,15,08,22,12.60
2011,08,15,08,23,12.60
2011,08,15,08,24,12.70
2011,08,15,08,25,12.80
2011,08,15,08,26,12.80
2011,08,15,08,27,12.80
2011,08,15,08,28,12.80
2011,08,15,08,29,12.80
2011,08,15,08,30,12.80
2011,08,15,08,31,12.80
2011,08,15,08,32,12.80
2011,08,15,08,33,12.80
2011,08,15,08,34,12.80
2011,08,15,08,35,12.80
2011,08,15,08,36,12.80
2011,08,15,08,37,12.80
2011,08,15,08,38,12.90
2011,08,15,08,39,12.90
2011,08,15,08,40,13.00
2011,08,15,08,41,13.00
2011,08,15,08,42,13.00
2011,08,15,08,43,13.00
2011,08,15,08,44,13.10
2011,08,15,08,45,13.10
2011,08,15,08,46,13.20
2011,08,15,08,47,13.20
2011,08,15,08,48,13.30
2011,08,15,08,49,13.30
2011,08,15,08,50,13.30
2011,08,15,08,51,13.30
2011,08,15,08,52,13.30
2011,08,15,08,53,13.30
2011,08,15,08,54,13.30
2011,08,15,08,55,13.30
2011,08,15,08,56,13.40
2011,08,15,08,57,13.30
2011,08,15,08,58,13.30
2011,08,15,08,59,13.30
2011,08,15,09,00,13.30
2011,08,15,09,01,13.40
2011,08,15,09,02,13.40
2011,08,15,09,03,13.30
2011,08,15,09,04,13.40
2011,08,15,09,05,13.40
2011,08,15,09,06,13.40
2011,08,15,09,07,13.50
2011,08,15,09,08,13.50
2011,08,15,09,09,13.50
2011,08,15,09,10,13.50
2011,08,15,09,11,13.60
2011,08,15,09,12,13.60
2011,08,15,09,13,13.70
2011,08,15,09,14,13.70
2011,08,15,09,15,13.80
2011,08,15,09,16,13.80
2011,08,15,09,17,13.90
2011,08,15,09,18,13.90
2011,08,15,09,19,14.00
2011,08,15,09,20,14.00
2011,08,15,09,21,14.10
2011,08,15,09,22,14.10
2011,08,15,09,23,14.20
2011,08,15,09,24,14.20
2011,08,15,09,25,14.30
2011,08,15,09,26,14.40
2011,08,15,09,27,14.50
2011,08,15,09,28,14.60
2011,08,15,09,29,14.60
2011,08,15,09,30,14.60
2011,08,15,09,31,14.60
2011,08,15,09,32,14.70
2011,08,15,09,33,14.70
2011,08,15,09,34,14.80
2011,08,15,09,35,14.80
2011,08,15,09,36,14.80
2011,08,15,09,37,14.90
2011,08,15,09,38,14.90
2011,08,15,09,39,14.90
2011,08,15,09,40,14.90
2011,08,15,09,41,14.90
2011,08,15,09,42,15.00
2011,08,15,09,43,15.00
2011,08,15,09,44,15.10
2011,08,15,09,45,15.10
2011,08,15,09,46,15.10
2011,08,15,09,47,15.10
2011,08,15,09,48,15.10
2011,08,15,09,49,15.20
2011,08,15,09,50,15.20
2011,08,15,09,51,15.20
2011,08,15,09,52,15.30
2011,08,15,09,53,15.30
2011,08,15,09,54,15.30
2011,08,15,09,55,15.30
2011,08,15,09,56,15.30
2011,08,15,09,57,15.30
2011,08,15,09,58,15.40
2011,08,15,09,59,15.40
2011,08,15,10,00,15.40
2011,08,15,10,01,15.50
2011,08,15,10,02,15.50
2011,08,15,10,03,15.60
2011,08,15,10,04,15.60
2011,08,15,10,05,15.60
2011,08,15,10,06,15.60
2011,08,15,10,07,15.50
2011,08,15,10,08,15.50
2011,08,15,10,09,15.40
2011,08,15,10,10,15.40
2011,08,15,10,11,15.40
2011,08,15,10,12,15.40
2011,08,15,10,13,15.40
2011,08,15,10,14,15.40
2011,08,15,10,15,15.40
2011,08,15,10,16,15.40
2011,08,15,10,17,15.40
2011,08,15,10,18,15.50
2011,08,15,10,19,15.50
2011,08,15,10,20,15.60
2011,08,15,10,21,15.60
2011,08,15,10,22,15.70
2011,08,15,10,23,15.70
2011,08,15,10,24,15.80
2011,08,15,10,25,15.80
2011,08,15,10,26,15.80
2011,08,15,10,27,15.80
2011,08,15,10,28,15.90
2011,08,15,10,29,15.90
2011,08,15,10,30,15.80
2011,08,15,10,31,15.90
2011,08,15,10,32,15.90
2011,08,15,10,33,15.90
2011,08,15,10,34,16.10
2011,08,15,10,35,16.00
2011,08,15,10,36,15.90
2011,08,15,10,37,16.00
2011,08,15,10,38,16.10
2011,08,15,10,39,16.20
2011,08,15,10,40,16.30
2011,08,15,10,41,16.40
2011,08,15,10,42,16.40
2011,08,15,10,43,16.40
2011,08,15,10,44,16.50
2011,08,15,10,45,16.60
2011,08,15,10,46,16.70
2011,08,15,10,47,16.70
2011,08,15,10,48,16.70
2011,08,15,10,49,16.60
2011,08,15,10,50,16.60
2011,08,15,10,51,16.60
2011,08,15,10,52,16.70
2011,08,15,10,53,16.70
2011,08,15,10,54,16.70
2011,08,15,10,55,16.70
2011,08,15,10,56,16.70
2011,08,15,10,57,16.70
2011,08,15,10,58,16.70
2011,08,15,10,59,16.70
2011,08,15,11,00,16.90
2011,08,15,11,01,16.90
2011,08,15,11,02,17.00
2011,08,15,11,03,16.90
2011,08,15,11,04,16.90
2011,08,15,11,05,16.90
2011,08,15,11,06,16.80
2011,08,15,11,07,16.80
2011,08,15,11,08,16.80
2011,08,15,11,09,16.80
2011,08,15,11,10,16.70
2011,08,15,11,11,16.70
2011,08,15,11,12,16.70
2011,08,15,11,13,16.80
2011,08,15,11,14,16.80
2011,08,15,11,15,16.80
2011,08,15,11,16,16.70
2011,08,15,11,17,16.70
2011,08,15,11,18,16.70
2011,08,15,11,19,16.80
2011,08,15,11,20,16.90
2011,08,15,11,21,17.00
2011,08,15,11,22,17.00
2011,08,15,11,23,17.00
2011,08,15,11,24,17.00
2011,08,15,11,25,17.20
2011,08,15,11,26,17.20
2011,08,15,11,27,17.30
2011,08,15,11,28,17.40
2011,08,15,11,29,17.50
2011,08,15,11,30,17.50
2011,08,15,11,31,17.60
2011,08,15,11,32,17.50
2011,08,15,11,33,17.40
2011,08,15,11,34,17.30
2011,08,15,11,35,17.30
2011,08,15,11,36,17.30
2011,08,15,11,37,17.40
2011,08,15,11,38,17.50
2011,08,15,11,39,17.50
2011,08,15,11,40,17.40
2011,08,15,11,41,17.40
2011,08,15,11,42,17.40
2011,08,15,11,43,17.50
2011,08,15,11,44,17.70
2011,08,15,11,45,17.80
2011,08,15,11,46,17.80
2011,08,15,11,47,17.80
2011,08,15,11,48,17.80
2011,08,15,11,49,17.80
2011,08,15,11,50,17.70
2011,08,15,11,51,17.70
2011,08,15,11,52,17.60
2011,08,15,11,53,17.60
2011,08,15,11,54,17.60
2011,08,15,11,55,17.50
2011,08,15,11,56,17.50
2011,08,15,11,57,17.70
2011,08,15,11,58,17.80
2011,08,15,11,59,17.90
2011,08,15,12,00,17.90
2011,08,15,12,01,17.90
2011,08,15,12,02,17.90
2011,08,15,12,03,17.90
2011,08,15,12,04,17.90
2011,08,15,12,05,17.80
2011,08,15,12,06,17.80
2011,08,15,12,07,17.90
2011,08,15,12,08,17.90
2011,08,15,12,09,17.90
2011,08,15,12,10,17.90
2011,08,15,12,11,17.90
2011,08,15,12,12,17.90
2011,08,15,12,13,17.90
2011,08,15,12,14,17.90
2011,08,15,12,15,17.90
2011,08,15,12,16,18.10
2011,08,15,12,17,18.20
2011,08,15,12,18,18.20
2011,08,15,12,19,18.20
2011,08,15,12,20,18.40
2011,08,15,12,21,18.40
2011,08,15,12,22,18.40
2011,08,15,12,23,18.40
2011,08,15,12,24,18.40
2011,08,15,12,25,18.30
2011,08,15,12,26,18.40
2011,08,15,12,27,18.50
2011,08,15,12,28,18.50
2011,08,15,12,29,18.60
2011,08,15,12,30,18.70
2011,08,15,12,31,18.70
2011,08,15,12,32,18.60
2011,08,15,12,33,18.70
2011,08,15,12,34,18.70
2011,08,15,12,35,18.70
2011,08,15,12,36,18.70
2011,08,15,12,37,18.60
2011,08,15,12,38,18.60
2011,08,15,12,39,18.60
2011,08,15,12,40,18.60
2011,08,15,12,41,18.50
2011,08,15,12,42,18.40
2011,08,15,12,43,18.30
2011,08,15,12,44,18.40
2011,08,15,12,45,18.40
2011,08,15,12,46,18.50
2011,08,15,12,47,18.60
2011,08,15,12,48,18.60
2011,08,15,12,49,18.60
2011,08,15,12,50,18.50
2011,08,15,12,51,18.50
2011,08,15,12,52,18.50
2011,08,15,12,53,18.60
2011,08,15,12,54,18.60
2011,08,15,12,55,18.70
2011,08,15,12,56,18.70
2011,08,15,12,57,18.70
2011,08,15,12,58,18.70
2011,08,15,12,59,18.80
2011,08,15,13,00,18.80
2011,08,15,13,01,18.90
2011,08,15,13,02,18.90
2011,08,15,13,03,18.90
2011,08,15,13,04,18.90
2011,08,15,13,05,19.00
2011,08,15,13,06,19.10
2011,08,15,13,07,19.10
2011,08,15,13,08,19.00
2011,08,15,13,09,19.00
2011,08,15,13,10,18.90
2011,08,15,13,11,18.90
2011,08,15,13,12,18.90
2011,08,15,13,13,18.90
2011,08,15,13,14,19.10
2011,08,15,13,15,19.10
2011,08,15,13,16,19.10
2011,08,15,13,17,19.10
2011,08,15,13,18,19.20
2011,08,15,13,19,19.30
2011,08,15,13,20,19.40
2011,08,15,13,21,19.50
2011,08,15,13,22,19.50
2011,08,15,13,23,19.50
2011,08,15,13,24,19.50
2011,08,15,13,25,19.40
2011,08,15,13,26,19.40
2011,08,15,13,27,19.50
2011,08,15,13,28,19.50
2011,08,15,13,29,19.50
2011,08,15,13,30,19.60
2011,08,15,13,31,19.60
2011,08,15,13,32,19.60
2011,08,15,13,33,19.40
2011,08,15,13,34,19.40
2011,08,15,13,35,19.40
2011,08,15,13,36,19.40
2011,08,15,13,37,19.40
2011,08,15,13,38,19.40
2011,08,15,13,39,19.50
2011,08,15,13,40,19.50
2011,08,15,13,41,19.60
2011,08,15,13,42,19.60
2011,08,15,13,43,19.60
2011,08,15,13,44,19.50
2011,08,15,13,45,19.50
2011,08,15,13,46,19.40
2011,08,15,13,47,19.40
2011,08,15,13,48,19.40
2011,08,15,13,49,19.40
2011,08,15,13,50,19.50
2011,08,15,13,51,19.50
2011,08,15,13,52,19.40
2011,08,15,13,53,19.40
2011,08,15,13,54,19.40
2011,08,15,13,55,19.40
2011,08,15,13,56,19.40
2011,08,15,13,57,19.60
2011,08,15,13,58,19.70
2011,08,15,13,59,19.70
2011,08,15,14,00,19.60
2011,08,15,14,01,19.60
2011,08,15,14,02,19.50
2011,08,15,14,03,19.40
2011,08,15,14,04,19.40
2011,08,15,14,05,19.40
2011,08,15,14,06,19.50
2011,08,15,14,07,19.50
2011,08,15,14,08,19.60
2011,08,15,14,09,19.70
2011,08,15,14,10,19.70
2011,08,15,14,11,19.70
2011,08,15,14,12,19.60
2011,08,15,14,13,19.60
2011,08,15,14,14,19.70
2011,08,15,14,15,19.60
2011,08,15,14,16,19.60
2011,08,15,14,17,19.70
2011,08,15,14,18,19.80
2011,08,15,14,19,19.80
2011,08,15,14,20,19.90
2011,08,15,14,21,19.90
2011,08,15,14,22,19.80
2011,08,15,14,23,19.70
2011,08,15,14,24,19.70
2011,08,15,14,25,19.70
2011,08,15,14,26,19.80
2011,08,15,14,27,19.80
2011,08,15,14,28,19.80
2011,08,15,14,29,19.90
2011,08,15,14,30,20.00
2011,08,15,14,31,20.10
2011,08,15,14,32,20.00
2011,08,15,14,33,19.90
2011,08,15,14,34,19.70
2011,08,15,14,35,19.60
2011,08,15,14,36,19.60
2011,08,15,14,37,19.70
2011,08,15,14,38,19.60
2011,08,15,14,39,19.60
2011,08,15,14,40,19.70
2011,08,15,14,41,19.80
2011,08,15,14,42,19.80
2011,08,15,14,43,19.80
2011,08,15,14,44,19.80
2011,08,15,14,45,19.90
2011,08,15,14,46,19.90
2011,08,15,14,47,19.80
2011,08,15,14,48,19.80
2011,08,15,14,49,19.70
2011,08,15,14,50,19.80
2011,08,15,14,51,19.80
2011,08,15,14,52,19.90
2011,08,15,14,53,19.90
2011,08,15,14,54,19.90
2011,08,15,14,55,20.00
2011,08,15,14,56,20.10
2011,08,15,14,57,20.10
2011,08,15,14,58,20.20
2011,08,15,14,59,20.40
2011,08,15,15,00,20.40
2011,08,15,15,01,20.40
2011,08,15,15,02,20.40
2011,08,15,15,03,20.40
2011,08,15,15,04,20.40
2011,08,15,15,05,20.40
2011,08,15,15,06,20.30
2011,08,15,15,07,20.40
2011,08,15,15,08,20.40
2011,08,15,15,09,20.40
2011,08,15,15,10,20.50
2011,08,15,15,11,20.40
2011,08,15,15,12,20.30
2011,08,15,15,13,20.40
2011,08,15,15,14,20.40
2011,08,15,15,15,20.50
2011,08,15,15,16,20.50
2011,08,15,15,17,20.60
2011,08,15,15,18,20.60
2011,08,15,15,19,20.70
2011,08,15,15,20,20.70
2011,08,15,15,21,20.70
2011,08,15,15,22,20.60
2011,08,15,15,23,20.50
2011,08,15,15,24,20.50
2011,08,15,15,25,20.60
2011,08,15,15,26,20.60
2011,08,15,15,27,20.70
2011,08,15,15,28,20.60
2011,08,15,15,29,20.60
2011,08,15,15,30,20.60
2011,08,15,15,31,20.60
2011,08,15,15,32,20.70
2011,08,15,15,33,20.70
2011,08,15,15,34,20.70
2011,08,15,15,35,20.70
2011,08,15,15,36,20.70
2011,08,15,15,37,20.70
2011,08,15,15,38,20.70
2011,08,15,15,39,20.60
2011,08,15,15,40,20.60
2011,08,15,15,41,20.60
2011,08,15,15,42,20.70
2011,08,15,15,43,20.60
2011,08,15,15,44,20.60
2011,08,15,15,45,20.50
2011,08,15,15,46,20.60
2011,08,15,15,47,20.70
2011,08,15,15,48,20.80
2011,08,15,15,49,20.80
2011,08,15,15,50,20.70
2011,08,15,15,51,20.70
2011,08,15,15,52,20.70
2011,08,15,15,53,20.70
2011,08,15,15,54,20.60
2011,08,15,15,55,20.50
2011,08,15,15,56,20.40
2011,08,15,15,57,20.50
2011,08,15,15,58,20.50
2011,08,15,15,59,20.60
2011,08,15,16,00,20.60
2011,08,15,16,01,20.60
2011,08,15,16,02,20.60
2011,08,15,16,03,20.60
2011,08,15,16,04,20.60
2011,08,15,16,05,20.60
2011,08,15,16,06,20.60
2011,08,15,16,07,20.60
2011,08,15,16,08,20.60
2011,08,15,16,09,20.60
2011,08,15,16,10,20.60
2011,08,15,16,11,20.60
2011,08,15,16,12,20.70
2011,08,15,16,13,20.60
2011,08,15,16,14,20.60
2011,08,15,16,15,20.60
2011,08,15,16,16,20.50
2011,08,15,16,17,20.40
2011,08,15,16,18,20.40
2011,08,15,16,19,20.40
2011,08,15,16,20,20.40
2011,08,15,16,21,20.50
2011,08,15,16,22,20.50
2011,08,15,16,23,20.60
2011,08,15,16,24,20.60
2011,08,15,16,25,20.70
2011,08,15,16,26,20.80
2011,08,15,16,27,20.80
2011,08,15,16,28,20.80
2011,08,15,16,29,20.80
2011,08,15,16,30,20.80
2011,08,15,16,31,20.80
2011,08,15,16,32,20.80
2011,08,15,16,33,20.70
2011,08,15,16,34,20.70
2011,08,15,16,35,20.50
2011,08,15,16,36,20.50
2011,08,15,16,37,20.50
2011,08,15,16,38,20.60
2011,08,15,16,39,20.60
2011,08,15,16,40,20.70
2011,08,15,16,41,20.70
2011,08,15,16,42,20.70
2011,08,15,16,43,20.70
2011,08,15,16,44,20.60
2011,08,15,16,45,20.60
2011,08,15,16,46,20.60
2011,08,15,16,47,20.60
2011,08,15,16,48,20.50
2011,08,15,16,49,20.40
2011,08,15,16,50,20.40
2011,08,15,16,51,20.50
2011,08,15,16,52,20.50
2011,08,15,16,53,20.50
2011,08,15,16,54,20.40
2011,08,15,16,55,20.30
2011,08,15,16,56,20.30
2011,08,15,16,57,20.20
2011,08,15,16,58,20.20
2011,08,15,16,59,20.20
2011,08,15,17,00,20.10
2011,08,15,17,01,20.00
2011,08,15,17,02,19.90
2011,08,15,17,03,20.10
2011,08,15,17,04,20.10
2011,08,15,17,05,20.10
2011,08,15,17,06,20.20
2011,08,15,17,07,20.10
2011,08,15,17,08,20.10
2011,08,15,17,09,20.10
2011,08,15,17,10,20.20
2011,08,15,17,11,20.20
2011,08,15,17,12,20.20
2011,08,15,17,13,20.20
2011,08,15,17,14,20.10
2011,08,15,17,15,20.10
2011,08,15,17,16,20.20
2011,08,15,17,17,20.10
2011,08,15,17,18,20.00
2011,08,15,17,19,19.90
2011,08,15,17,20,19.90
2011,08,15,17,21,19.90